Regional Weather Roundup
Issued by NWS

Home | Current Version | Previous Version | Graphics & Text | Print | Product List | Glossary On
Versions: 1 2 3 4 5 6 7 8 9 10 11 12 13 14 15 16 17 18 19 20 21 22 23 24 25 26 27 28 29 30 31 32 33 34 35 36 37 38 39 40 41 42 43 44 45 46 47 48 49 50
000
ASUS43 KBIS 282010
RWRND

NORTH DAKOTA REGIONAL WEATHER ROUNDUP
NATIONAL WEATHER SERVICE BISMARCK ND
300 PM CDT SAT MAR 28 2015

NOTE: "FAIR" INDICATES FEW OR NO CLOUDS BELOW 12,000 FEET WITH NO
SIGNIFICANT WEATHER AND/OR OBSTRUCTIONS TO VISIBILITY.


NDZ001>003-009>011-017-282100-
NORTHWEST NORTH DAKOTA

CITY           SKY/WX    TMP DP  RH WIND       PRES   REMARKS
WILLISTON      PTSUNNY   74  37  26 SW9       29.49F
MINOT          SUNNY     59  38  45 S18G29    29.57F
MINOT AFB      SUNNY     59  46  61 S24       29.55F
$$

NDZ018>021-031>035-040>046-282100-
SOUTHWEST NORTH DAKOTA

CITY           SKY/WX    TMP DP  RH WIND       PRES   REMARKS
BISMARCK       SUNNY     60  35  39 S22       29.71F
DICKINSON      SUNNY     77  33  20 S24G32    29.57F
GARRISON         N/A     62  40  44 S21       29.60F
HETTINGER ARPT SUNNY     75  33  21 S16G28    29.66F
$$

NDZ004>008-012>016-024-026-027-054-282100-
NORTHEAST NORTH DAKOTA

CITY           SKY/WX    TMP DP  RH WIND       PRES   REMARKS
GRAND FORKS    PTSUNNY   48  30  49 S25G36    29.86F
GRND FRKS AFB  MOSUNNY   46  32  57 S24G35    29.85F
DEVILS LAKE    MOSUNNY   43  36  75 S24G30    29.75F
$$

NDZ022-023-025-028>030-036>039-047>053-282100-
SOUTHEAST NORTH DAKOTA

CITY           SKY/WX    TMP DP  RH WIND       PRES   REMARKS
FARGO          SUNNY     49  26  41 S28G35    29.92F
JAMESTOWN      SUNNY     50  36  58 S25G36    29.79F
$$




USA.gov is the U.S. government's official web portal to all federal, state and local government web resources and services.